STARLINK-33825, 63505

Orbit data source: Space-Track

STARLINK-33825, 63505 is a payload satellite owned by SpaceX/Seattle (US) in LEO that was launched on Mon, 07 Apr 2025 UTC via an FALCON 9 launch vehicle from the Air Force Western Test Range (AFWTR). Payload-class satellites include a variety of spacecraft equipped with specific instruments for various scientific and technological missions. These include communications satellites like Starlink; space stations such as the ISS; scientific satellites like the Hubble; Earth observation satellites from companies like Planet Labs, Umbra, and HawkEye 360; GPS; miniature CubeSats for education and research; and military/defense satellites.

Loading next visibility...
Identifier
63505, 2025-071N
Orbit
LEO
Country
Flag of USUS
Related business
Manufacturer
SpaceX/Seattle
Mission
Operational Commercial Communications
Bus & Motor
STARLINK V2MO, Unknown motor
Mass
575 kg wet, ~530 kg dry
Launch date (UTC)
2025-04-07 (5 months ago)
Launch vehicle
FALCON 9
Launch site
Air Force Western Test Range (AFWTR)
Object type
Payload
Rocket body
Debris
Shape & HBR
Box + 1 Pan, 14.5 m
Radar Cross Section
41.120 m², Large (>1 m²)

Expand to show TLE details & history
Last TLE update: 1 day ago

TLE from 1 day ago
0 STARLINK-33825
1 63505U 25071N   25259.62751812  .00030793  00000-0  10476-2 0  9991
2 63505  53.1568 228.1780 0001695  86.6745 273.4450 15.30196764 26122
Epoch: 2025-09-16T15:03Z
TLE epoch observation values (Epoch: 2025-09-16T15:03:37.565Z)
Latitude
Longitude
6.45638°
Altitude
476.054 km
Speed
7.629 km/s
True Right ascension
15h 12m 42s
True Declination
0° 00' 00"
Sunlit
Object was in daylight at epoch
Visualization orbit readout
Latitude
Unknown
Longitude
Unknown
Altitude
Unknown
Speed
Unknown
Apparent Right ascension
Unknown
Apparent Declination
Unknown
Sunlit
N/A
Visualization observer readout
Local Sidereal Time
17:56:45
Azimuth
Unknown
Elevation
Unknown
Doppler factor
Unknown
Orbital elements
Apogee altitude
476.643 km
Perigee altitude
474.32 km
Semi-major axis
6,853.619 km
Eccentricity
0.00017
Inclination
53.1568°
RAAN
228.178°
Arg. of periapsis
86.6745°
True anomaly
273.42561°
Mean anomaly
273.445°
Eccentric anomaly
273.43531°
Mean motion
3.82528 °/min
Orbital period
94.11 mins
BSTAR
0.0010476
Loading maneuver chart data...
Computing Atmospheric mass density...
Loading historical data...
Loading historical data...
Loading historical data...
Loading historical data...
Loading historical data...
Loading historical data...
Loading historical data...

Documentation

Showing up to 5 results
|